[[{"header":{"parameterUnit":"m.s-1","parameterCategory":2,"la1":30.2991,"la2":30.254,"lo1":-89.0895,"lo2":-89.0444,"dy":0.0017,"dx":0.0017,"nx":28,"ny":28,"refTime":"2024-04-14T09:00:00:Z","depth":"0","parameterNumber":2,"parameterNumberName":"U-component_of_CURRENTS"},"data":[0,0,0,0,0,0,0,0,0,0,0,0,0,0,0,0,0,0,0,0,0,0,0,0,0,0,0,0,0,0,0,0,0,0,0,0,0,0,0,0,0,0,0,0,0,0,0,0,0,0,0,0,0,0,0,0,0,0,0.3739,0.3738,0,0.3704,0.3703,0.3702,0.3663,0.3663,0.3663,0.3663,0.3629,0.3628,0.3627,0,0,0,0,0,0,0,0,0,0,0,0,0,0.3728,0.3728,0.3739,0.3738,0.3738,0.3704,0.3703,0.3702,0.3663,0.3663,0.3663,0.3663,0.3629,0.3628,0.3627,0,0,0,0,0,0,0,0,0,0,0,0,0,0.3713,0.3728,0.3739,0.3718,0.3716,0.3704,0.3703,0.3702,0.3663,0.3663,0.3663,0.3663,0.3629,0.3628,0.3627,0.3625,0,0,0.3624,0.3623,0,0,0,0,0,0,0,0,0.3714,0.3713,0.3721,0.372,0.3717,0.3691,0.3687,0.3678,0.3664,0.3679,0.3663,0.3663,0.3653,0.3649,0.3637,0.3624,0.3622,0.3623,0.3623,0.3622,0.3622,0,0,0,0,0,0,0,0.3715,0.3714,0.372,0.3721,0.3719,0.3696,0.3693,0.3684,0.3664,0.3678,0.3676,0.3679,0.3651,0.3639,0.3637,0.3622,0.3623,0.3622,0.3622,0.3621,0.3696,0.3699,0,0,0,0,0,0,0.373,0.3715,0.3722,0.372,0.372,0.3697,0.3694,0.3696,0.3664,0.3661,0.3679,0.3677,0.3641,0.3638,0.3635,0.3726,0.3622,0.3621,0.3621,0.3693,0.3697,0.37,0,0,0,0,0,0,0.373,0.3731,0.3723,0.372,0.3718,0.3698,0.3701,0.3696,0.3696,0.3666,0.3661,0.3686,0.364,0.3637,0.3649,0.3721,0.3621,0.362,0.369,0.3694,0.3698,0.3848,0,0,0,0,0,0,0.373,0.3731,0.3736,0.3721,0.3719,0.3733,0.3701,0.3696,0.37,0.3697,0.3671,0.3666,0.364,0.3651,0.3648,0.3718,0.3619,0.3687,0.3692,0.3697,0.3839,0.3856,0.3871,0,0,0,0,0,0.373,0.3735,0.3736,0.3737,0.3727,0.3734,0.3731,0.3712,0.3701,0.3709,0.3696,0.3668,0.3682,0.3652,0.3648,0.3719,0.3685,0.3691,0.3696,0.3832,0.3853,0.387,0,0,0,0,0,0,0.3712,0.3732,0.3733,0.3738,0.3747,0.373,0.3731,0.3725,0.3719,0.3718,0.3687,0.3682,0.3731,0.3696,0.3664,0.3756,0.3685,0.369,0.379,0.3809,0.3824,0.3832,0.3618,0,0,0,0,0,0.3718,0.3736,0.3747,0.3749,0.376,0.3751,0.3751,0.3747,0.3741,0.3737,0.3722,0.372,0.375,0.3754,0.3758,0.3792,0.3813,0.3839,0.3855,0.3869,0.3874,0.3995,0.4023,0.3719,0.3719,0.3719,0,0,0.3708,0.3722,0.3729,0.3749,0.375,0.3779,0.3749,0.3761,0.3792,0.3736,0.3765,0.3772,0.3772,0.3825,0.3844,0.3804,0.3967,0.3876,0.3888,0.3885,0.4005,0.4035,0.4061,0.3723,0.3722,0.3722,0,0,0.3703,0.3718,0.3737,0.3761,0.3785,0.3794,0.3809,0.3812,0.3825,0.3852,0.3849,0.3898,0.3894,0.3936,0.3954,0.4055,0.4052,0.4058,0.414,0.426,0.4286,0.431,0.4383,0.4412,0.4061,0.4062,0.4062,0,0.369,0.372,0.374,0.3772,0.3799,0.3813,0.3847,0.387,0.3878,0.3914,0.3878,0.3966,0.3959,0.4079,0.4111,0.4097,0.4141,0.4071,0.4284,0.4307,0.4329,0.4398,0.4428,0.4069,0.4069,0.4068,0.4067,0,0.3705,0.3739,0.3754,0.3813,0.3846,0.3876,0.3927,0.3967,0.3985,0.4014,0.4119,0.4127,0.4186,0.4208,0.4182,0.4348,0.4323,0.4298,0.4241,0.4369,0.4433,0.4462,0.4081,0.4078,0.4076,0.4074,0,0,0.3644,0.3748,0.3752,0.3801,0.3876,0.3905,0.399,0.4077,0.4151,0.4187,0.4293,0.436,0.4381,0.4402,0.4412,0.4499,0.4687,0.446,0.4462,0.454,0.4935,0.48,0.4817,0.471,0.4716,0.472,0.4921,0,0.3649,0.3723,0.3777,0.3861,0.391,0.3984,0.4064,0.4153,0.4222,0.4328,0.4408,0.4498,0.4457,0.4502,0.4598,0.4668,0.4767,0.4632,0.479,0.4794,0.4667,0.4849,0.458,0.4726,0.4949,0.4953,0.4957,0,0.3639,0.3702,0.3781,0.3915,0.3944,0.4003,0.4156,0.4232,0.4399,0.4457,0.4585,0.4637,0.4797,0.4726,0.4946,0.4865,0.4914,0.4952,0.4961,0.4798,0.4713,0.4631,0.4769,0.4647,0.5,0.4997,0.4993,0,0.3585,0.3703,0.3773,0.3815,0.3964,0.403,0.4115,0.4271,0.4367,0.4556,0.4646,0.4824,0.492,0.5043,0.5109,0.5057,0.5325,0.5267,0.5198,0.5187,0.4967,0.4926,0.5005,0.5436,0.5436,0.5435,0.5435,0,0.3564,0.362,0.3759,0.3799,0.3905,0.4015,0.4146,0.4258,0.4443,0.4578,0.4714,0.4849,0.5005,0.5155,0.5204,0.5296,0.542,0.5253,0.5255,0.5007,0.497,0.4853,0.4796,0.5443,0.5441,0.5439,0.5438,0,0.3488,0.3574,0.3669,0.3828,0.3881,0.3957,0.415,0.4259,0.4428,0.4616,0.4687,0.4922,0.5113,0.5241,0.5437,0.54,0.5346,0.5492,0.5162,0.512,0.4883,0.4843,0.4775,0.4644,0.5465,0.5463,0.5461,0,0.3455,0.3496,0.3661,0.3733,0.3809,0.3939,0.404,0.4226,0.4349,0.4647,0.4742,0.4984,0.512,0.5354,0.5345,0.5433,0.531,0.5213,0.5055,0.4873,0.4833,0.4676,0.4559,0.4836,0.483,0.4824,0.482,0,0.3413,0.3471,0.3565,0.3699,0.381,0.3927,0.4084,0.4169,0.4399,0.454,0.4764,0.4898,0.5091,0.5048,0.5123,0.5138,0.4933,0.5102,0.5028,0.445,0.4173,0.4043,0.4684,0.4773,0.4777,0.4781,0.4783,0.4785,0.3387,0.3436,0.3566,0.3684,0.3799,0.3906,0.3927,0.4093,0.4232,0.4364,0.4618,0.4666,0.4735,0.4792,0.4784,0.4571,0.4621,0.4412,0.4416,0.4304,0.4049,0.4559,0.4568,0.4571,0.4574,0.4576,0.4579,0,0.3351,0.3429,0.3549,0.3664,0.3718,0.3816,0.3942,0.3909,0.3953,0.4108,0.4213,0.4228,0.4154,0.4188,0.4073,0.3913,0.374,0.3818,0.355,0.3501,0.4063,0.3902,0.3625,0.3625,0.3625,0.3625,0.3625,0.3626,0.3345,0.3424,0.3486,0.3555,0.361,0.3582,0.3595,0.3563,0.36,0.3555,0.351,0.3593,0.3774,0.3748,0.3568,0.3473,0.3249,0.3051,0.314,0.354,0.3595,0.3647,0.3485,0.3125,0.3124,0.2382,0.2377,0.2372]},{"header":{"parameterUnit":"m.s-1","parameterCategory":2,"la1":30.2991,"la2":30.254,"lo1":-89.0895,"lo2":-89.0444,"dy":0.0017,"dx":0.0017,"nx":28,"ny":28,"refTime":"2024-04-14T09:00:00:Z","depth":"0","parameterNumber":3,"parameterNumberName":"V-component_of_CURRENTS"},"data":[0,0,0,0,0,0,0,0,0,0,0,0,0,0,0,0,0,0,0,0,0,0,0,0,0,0,0,0,0,0,0,0,0,0,0,0,0,0,0,0,0,0,0,0,0,0,0,0,0,0,0,0,0,0,0,0,0,0,0.0155,0.0154,0,0.0094,0.0093,0.0092,0.0054,0.0054,0.0054,0.0054,-0.0014,-0.0016,-0.0017,0,0,0,0,0,0,0,0,0,0,0,0,0,0.0184,0.0184,0.0155,0.0154,0.0154,0.0094,0.0093,0.0092,0.0054,0.0054,0.0054,0.0054,-0.0014,-0.0016,-0.0018,0,0,0,0,0,0,0,0,0,0,0,0,0,0.0151,0.0184,0.0155,0.0128,0.0125,0.0094,0.0093,0.0092,0.0054,0.0054,0.0054,0.0054,-0.0013,-0.0015,-0.0018,-0.003,0,0,-0.0026,-0.0027,0,0,0,0,0,0,0,0,0.0153,0.015,0.0133,0.013,0.0127,0.0082,0.0078,0.0051,0.0054,0.008,0.0054,0.0054,0.0018,0.0013,0.0001,-0.0033,-0.0036,-0.0026,-0.0027,-0.0029,-0.0029,0,0,0,0,0,0,0,0.0156,0.0152,0.013,0.0132,0.0129,0.0101,0.0096,0.0073,0.005,0.0078,0.0075,0.007,0.0016,0.0003,-0.0001,-0.0037,-0.0026,-0.0028,-0.003,-0.0031,-0.0073,-0.0073,0,0,0,0,0,0,0.0168,0.0155,0.0132,0.0128,0.0141,0.0101,0.0096,0.0096,0.005,0.0044,0.007,0.0069,0.0008,0.0002,-0.0004,0.0005,-0.0029,-0.0031,-0.0032,-0.0073,-0.0073,-0.0072,0,0,0,0,0,0,0.0169,0.0167,0.0134,0.014,0.0134,0.0101,0.0101,0.0095,0.0085,0.0045,0.0038,0.0068,0.0007,-0.0,-0.0015,0.0001,-0.0032,-0.0034,-0.0074,-0.0073,-0.0073,0.0006,0,0,0,0,0,0,0.017,0.0168,0.0172,0.0142,0.0135,0.0128,0.0101,0.0094,0.0083,0.008,0.004,0.0034,0.0007,-0.0011,-0.0018,-0.0003,-0.0036,-0.0074,-0.0074,-0.0073,0.0003,0.0009,0.0014,0,0,0,0,0,0.0172,0.0185,0.0172,0.0169,0.0141,0.0128,0.0122,0.0096,0.0083,0.0085,0.0059,0.0035,-0.0011,-0.0013,-0.0021,-0.0006,-0.0075,-0.0074,-0.0073,0.0,0.0008,0.0014,0,0,0,0,0,0,0.0201,0.0181,0.0167,0.0174,0.0156,0.0123,0.0122,0.0102,0.0082,0.008,0.004,0.0032,0.0022,-0.0004,-0.0005,-0.0017,-0.0047,-0.0047,0.0011,0.0018,0.0024,0.0068,-0.0039,0,0,0,0,0,0.021,0.0214,0.0187,0.0194,0.0187,0.0154,0.0145,0.0129,0.0106,0.0096,0.0068,0.004,0.0018,0.001,-0.0016,-0.002,-0.0026,-0.0017,-0.0011,-0.0006,0.0024,0.0025,0.0034,-0.0069,-0.0069,-0.0069,0,0,0.0223,0.0213,0.0215,0.02,0.0183,0.0187,0.0149,0.0143,0.0152,0.0093,0.0095,0.0057,0.002,0.0015,0.0008,-0.0002,0.0018,-0.0005,0.0,0.0028,0.0027,0.0037,0.0047,-0.0069,-0.0069,-0.0069,0,0,0.0256,0.0243,0.0257,0.0249,0.0231,0.0214,0.0216,0.0187,0.018,0.0174,0.0134,0.0113,0.0077,0.0059,0.0045,0.0068,0.0045,0.0052,0.0124,0.0124,0.0134,0.0142,0.0143,0.015,0.006,0.006,0.006,0,0.0273,0.0288,0.0259,0.0272,0.0276,0.0233,0.0254,0.024,0.0211,0.0219,0.0188,0.0151,0.0105,0.0117,0.0118,0.0084,0.0083,0.0101,0.0135,0.0143,0.015,0.0149,0.0156,0.0064,0.0064,0.0063,0.0063,0,0.0314,0.0327,0.0337,0.0342,0.0341,0.0353,0.0334,0.0335,0.0316,0.0302,0.0305,0.0248,0.0236,0.0205,0.0167,0.0194,0.0176,0.0139,0.0124,0.0166,0.0161,0.0167,0.007,0.0068,0.0067,0.0066,0,0,0.0362,0.0366,0.0374,0.0395,0.0383,0.0396,0.0413,0.0425,0.0464,0.0419,0.047,0.0401,0.0375,0.0358,0.0305,0.0297,0.0321,0.0248,0.0246,0.0263,0.0333,0.0278,0.0279,0.0293,0.0295,0.0296,0.0309,0,0.0408,0.0454,0.0441,0.0495,0.0519,0.0499,0.0531,0.0536,0.0534,0.0571,0.0519,0.0537,0.0434,0.0442,0.0414,0.0355,0.0343,0.0322,0.0279,0.0279,0.0236,0.0287,0.0277,0.0284,0.0315,0.0316,0.0317,0,0.0462,0.0487,0.0545,0.0591,0.0603,0.0633,0.0693,0.0715,0.074,0.0745,0.0745,0.0709,0.0696,0.0604,0.0535,0.053,0.0445,0.0384,0.0383,0.0317,0.0237,0.0246,0.0294,0.0099,0.0326,0.0325,0.0325,0,0.0525,0.0568,0.0624,0.0636,0.0674,0.0714,0.0742,0.0775,0.0834,0.0872,0.0932,0.0882,0.0902,0.0789,0.0643,0.0603,0.0572,0.0495,0.0367,0.0361,0.0339,0.0329,0.0208,0.0454,0.0453,0.0453,0.0453,0,0.0586,0.0635,0.0665,0.0701,0.0796,0.0794,0.0906,0.0926,0.1,0.1116,0.1039,0.1132,0.0954,0.0904,0.0731,0.0584,0.0636,0.0407,0.0371,0.0362,0.0355,0.017,0.0063,0.0454,0.0454,0.0454,0.0454,0,0.0646,0.066,0.0735,0.0795,0.0829,0.0901,0.1018,0.1106,0.1157,0.1315,0.1347,0.1346,0.1287,0.1087,0.0926,0.0724,0.0453,0.0492,0.0491,0.0454,0.0121,0.0021,-0.0116,-0.0191,0.036,0.0359,0.0358,0,0.0677,0.072,0.0813,0.0881,0.0917,0.1024,0.1117,0.1183,0.1299,0.1467,0.157,0.1563,0.1595,0.1318,0.0961,0.0661,0.0461,0.0428,0.0328,0.0126,-0.0012,-0.0095,-0.0153,0.033,0.0329,0.0328,0.0327,0,0.0745,0.0777,0.0844,0.0981,0.1089,0.122,0.1363,0.148,0.1605,0.1757,0.1951,0.1992,0.1726,0.1416,0.0962,0.0738,0.0284,0.0398,0.02,-0.0026,-0.013,-0.0226,0.0293,0.0319,0.032,0.0321,0.0321,0.0321,0.0804,0.0868,0.0965,0.11,0.1235,0.1425,0.1557,0.1733,0.1956,0.22,0.2219,0.2297,0.1802,0.1189,0.0865,0.0218,0.0224,-0.0,-0.0096,-0.0154,-0.0259,0.0238,0.0205,0.0205,0.0205,0.0205,0.0205,0,0.0877,0.0957,0.1084,0.1261,0.1432,0.1484,0.1735,0.1892,0.2178,0.2361,0.2519,0.2288,0.1706,0.1098,0.0227,-0.0211,-0.0348,-0.044,-0.0557,-0.0585,-0.0127,-0.0165,-0.0293,-0.0293,-0.0293,-0.0292,-0.0292,-0.0292,0.0926,0.1052,0.1119,0.1405,0.1543,0.178,0.1933,0.2174,0.2343,0.2566,0.2578,0.2547,0.2032,0.0537,-0.0468,-0.0674,-0.0924,-0.1013,-0.1131,-0.0839,-0.0805,-0.0773,-0.0835,-0.1101,-0.1102,-0.154,-0.1545,-0.1548]}],[{"header":{"parameterUnit":"m.s-1","parameterCategory":2,"la1":30.2991,"la2":30.254,"lo1":-89.0895,"lo2":-89.0444,"dy":0.0017,"dx":0.0017,"nx":28,"ny":28,"refTime":"2024-04-14T09:00:00:Z","depth":"2","parameterNumber":2,"parameterNumberName":"U-component_of_CURRENTS"},"data":[0,0,0,0,0,0,0,0,0,0,0,0,0,0,0,0,0,0,0,0,0,0,0,0,0,0,0,0,0,0,0,0,0,0,0,0,0,0,0,0,0,0,0,0,0,0,0,0,0,0,0,0,0,0,0,0,0,0,0.3033,0.3033,0,0.3044,0.3044,0.3044,0.304,0.304,0.304,0.304,0.3034,0.3034,0.3033,0,0,0,0,0,0,0,0,0,0,0,0,0,0.3,0.3001,0.3033,0.3033,0.3034,0.3044,0.3044,0.3044,0.304,0.304,0.304,0.304,0.3034,0.3034,0.3033,0,0,0,0,0,0,0,0,0,0,0,0,0,0.301,0.3001,0.3033,0.3036,0.3036,0.3044,0.3044,0.3044,0.304,0.304,0.304,0.304,0.3034,0.3034,0.3033,0.3028,0,0,0.3032,0.3032,0,0,0,0,0,0,0,0,0.3009,0.301,0.3035,0.3036,0.3036,0.3044,0.3031,0.3039,0.304,0.3034,0.304,0.304,0.3038,0.3037,0.3034,0.3028,0.3028,0.3032,0.3032,0.3032,0.3032,0,0,0,0,0,0,0,0.3009,0.301,0.3033,0.3035,0.3036,0.3035,0.3036,0.3032,0.3032,0.3035,0.3036,0.3043,0.3038,0.3034,0.3034,0.3028,0.3032,0.3032,0.3032,0.3031,0.3108,0.311,0,0,0,0,0,0,0.3015,0.3009,0.3033,0.3034,0.3027,0.3035,0.3036,0.3038,0.3032,0.3033,0.3043,0.3043,0.3035,0.3034,0.3034,0.311,0.3032,0.3031,0.3031,0.3106,0.3109,0.3111,0,0,0,0,0,0,0.3014,0.3017,0.3033,0.3025,0.3028,0.3036,0.3038,0.3039,0.3055,0.3039,0.3039,0.3061,0.3035,0.3034,0.3056,0.3106,0.3031,0.3031,0.3103,0.3107,0.311,0.3208,0,0,0,0,0,0,0.3013,0.3016,0.3024,0.3026,0.3029,0.3055,0.3038,0.3039,0.306,0.306,0.3055,0.3053,0.3035,0.3057,0.3055,0.3104,0.3031,0.31,0.3105,0.3109,0.3202,0.3215,0.3225,0,0,0,0,0,0.3012,0.3022,0.3024,0.3028,0.3037,0.3057,0.3058,0.3061,0.3061,0.3075,0.3076,0.3054,0.3083,0.3058,0.3056,0.3106,0.3098,0.3104,0.3108,0.3197,0.3212,0.3225,0,0,0,0,0,0,0.3006,0.3023,0.3025,0.3038,0.3056,0.3058,0.3072,0.3076,0.3086,0.309,0.3072,0.3071,0.311,0.3095,0.3067,0.3143,0.3092,0.3097,0.316,0.3174,0.3185,0.32,0.303,0,0,0,0,0,0.3011,0.3025,0.304,0.3052,0.3065,0.3073,0.3083,0.3089,0.3097,0.3102,0.31,0.3107,0.3127,0.3139,0.3141,0.3177,0.3194,0.3213,0.3224,0.3234,0.3246,0.3347,0.3369,0.3128,0.3128,0.3128,0,0,0.301,0.3024,0.303,0.3054,0.3065,0.3088,0.3079,0.3104,0.3128,0.31,0.313,0.3139,0.3143,0.3186,0.3204,0.3183,0.3307,0.3241,0.3249,0.3256,0.3355,0.3378,0.3399,0.3131,0.3131,0.313,0,0,0.3017,0.3033,0.3047,0.307,0.31,0.3111,0.3126,0.3143,0.3158,0.319,0.3187,0.3232,0.3241,0.327,0.3284,0.3362,0.3359,0.3366,0.3443,0.3541,0.3562,0.3581,0.3612,0.3633,0.3379,0.3379,0.338,0,0.3017,0.3033,0.3056,0.3081,0.3105,0.3127,0.3153,0.3174,0.3197,0.3235,0.3213,0.3292,0.3287,0.3375,0.3402,0.339,0.3425,0.3388,0.3558,0.3577,0.3595,0.3623,0.3644,0.3385,0.3384,0.3384,0.3383,0,0.3033,0.3053,0.3069,0.3108,0.3142,0.3168,0.3208,0.3246,0.3272,0.3306,0.3393,0.3401,0.3465,0.3472,0.3457,0.3589,0.3564,0.3557,0.3524,0.3626,0.3647,0.3668,0.3393,0.3391,0.3389,0.3388,0,0,0.3003,0.3066,0.3069,0.3099,0.316,0.3189,0.3252,0.3326,0.3395,0.3433,0.3533,0.3576,0.3614,0.3632,0.3639,0.3712,0.385,0.3696,0.3698,0.3728,0.4039,0.3922,0.3932,0.3889,0.3894,0.3898,0.3996,0,0.3005,0.3049,0.3087,0.3143,0.3173,0.3237,0.3304,0.3386,0.3452,0.3554,0.3619,0.3703,0.3668,0.3718,0.3797,0.3849,0.3914,0.3821,0.3935,0.3937,0.3824,0.3957,0.3632,0.3686,0.4016,0.402,0.4022,0,0.2997,0.3033,0.3081,0.3179,0.3203,0.3253,0.3387,0.3451,0.3607,0.3671,0.379,0.3839,0.3971,0.3915,0.4075,0.4027,0.4044,0.406,0.4065,0.3938,0.3861,0.3643,0.3711,0.4057,0.4054,0.4051,0.4049,0,0.2957,0.3029,0.3069,0.3098,0.3212,0.3272,0.335,0.3497,0.3583,0.3764,0.3856,0.4006,0.4094,0.4178,0.4216,0.4176,0.4367,0.4315,0.4212,0.4201,0.3935,0.3893,0.4421,0.4421,0.4421,0.4421,0.442,0,0.2935,0.2969,0.3059,0.3085,0.3173,0.3268,0.3386,0.3496,0.367,0.3793,0.3924,0.4029,0.4173,0.4283,0.4297,0.4333,0.4445,0.4252,0.4245,0.3955,0.3916,0.424,0.4218,0.4424,0.4423,0.4423,0.4422,0,0.2877,0.2932,0.2984,0.3102,0.3153,0.3219,0.3397,0.3489,0.3661,0.3827,0.3898,0.4104,0.4242,0.4337,0.4469,0.442,0.4466,0.4431,0.4048,0.3994,0.4201,0.4183,0.4343,0.434,0.4338,0.4336,0.4334,0,0.2849,0.2865,0.2975,0.3036,0.3094,0.3207,0.3296,0.3469,0.3565,0.3842,0.3916,0.4118,0.4201,0.4354,0.4337,0.4361,0.4432,0.4039,0.3897,0.423,0.4208,0.4193,0.4178,0.3571,0.3563,0.3557,0.3552,0,0.2796,0.283,0.2882,0.2987,0.3078,0.3165,0.3301,0.3356,0.3562,0.3676,0.3837,0.3931,0.4099,0.3982,0.403,0.3991,0.4018,0.3908,0.4418,0.3637,0.351,0.3485,0.3495,0.3496,0.3501,0.3505,0.3509,0.3511,0.2759,0.2771,0.2843,0.2931,0.3023,0.3084,0.3096,0.3215,0.3289,0.3405,0.3607,0.363,0.3711,0.3608,0.3516,0.3458,0.3718,0.3536,0.3553,0.3577,0.3466,0.3343,0.3272,0.3276,0.328,0.3283,0.3286,0,0.2691,0.2725,0.2803,0.2861,0.2881,0.2994,0.3067,0.3004,0.2974,0.3136,0.3208,0.2991,0.2933,0.3025,0.2847,0.2845,0.2795,0.2725,0.2626,0.2686,0.2739,0.2581,0.2155,0.2151,0.2147,0.2144,0,0,0.2669,0.2685,0.2702,0.2689,0.274,0.2689,0.2686,0.2622,0.265,0.2562,0.2571,0.2808,0.2941,0.2504,0.2456,0.227,0.2452,0.2184,0.3102,0.3047,0.3094,0.3231,0.3061,0,0,0,0,0]},{"header":{"parameterUnit":"m.s-1","parameterCategory":2,"la1":30.2991,"la2":30.254,"lo1":-89.0895,"lo2":-89.0444,"dy":0.0017,"dx":0.0017,"nx":28,"ny":28,"refTime":"2024-04-14T09:00:00:Z","depth":"2","parameterNumber":3,"parameterNumberName":"V-component_of_CURRENTS"},"data":[0,0,0,0,0,0,0,0,0,0,0,0,0,0,0,0,0,0,0,0,0,0,0,0,0,0,0,0,0,0,0,0,0,0,0,0,0,0,0,0,0,0,0,0,0,0,0,0,0,0,0,0,0,0,0,0,0,0,0.0031,0.0031,0,-0.002,-0.0021,-0.0021,-0.0051,-0.0051,-0.0051,-0.0051,-0.0113,-0.0115,-0.0116,0,0,0,0,0,0,0,0,0,0,0,0,0,0.0062,0.0062,0.0031,0.0031,0.003,-0.002,-0.0021,-0.0022,-0.0051,-0.0051,-0.0051,-0.0051,-0.0113,-0.0115,-0.0117,0,0,0,0,0,0,0,0,0,0,0,0,0,0.0034,0.0062,0.0032,0.001,0.0007,-0.002,-0.0021,-0.0022,-0.0051,-0.0051,-0.0051,-0.0051,-0.0112,-0.0114,-0.0117,-0.0128,0,0,-0.0124,-0.0125,0,0,0,0,0,0,0,0,0.0035,0.0033,0.0013,0.0011,0.0008,-0.0029,-0.0033,-0.0058,-0.0051,-0.0029,-0.0051,-0.0051,-0.0086,-0.0091,-0.01,-0.0131,-0.0134,-0.0124,-0.0126,-0.0127,-0.0127,0,0,0,0,0,0,0,0.0038,0.0034,0.0011,0.0013,0.001,-0.0012,-0.0016,-0.0038,-0.0056,-0.0031,-0.0033,-0.0039,-0.0088,-0.0098,-0.0102,-0.0135,-0.0124,-0.0126,-0.0128,-0.0129,-0.0175,-0.0174,0,0,0,0,0,0,0.0046,0.0037,0.0013,0.0009,0.0022,-0.0013,-0.0017,-0.0017,-0.0056,-0.0062,-0.0039,-0.004,-0.0093,-0.0099,-0.0104,-0.0101,-0.0127,-0.0129,-0.013,-0.0175,-0.0175,-0.0174,0,0,0,0,0,0,0.0047,0.0045,0.0015,0.0021,0.0016,-0.0013,-0.0013,-0.0018,-0.0025,-0.0062,-0.0068,-0.004,-0.0094,-0.0101,-0.0115,-0.0104,-0.013,-0.0132,-0.0175,-0.0175,-0.0174,-0.0106,0,0,0,0,0,0,0.0049,0.0046,0.0049,0.0022,0.0016,0.0009,-0.0013,-0.0019,-0.0028,-0.0031,-0.0065,-0.0071,-0.0094,-0.0111,-0.0117,-0.0108,-0.0134,-0.0175,-0.0175,-0.0175,-0.0109,-0.0104,-0.01,0,0,0,0,0,0.005,0.0061,0.005,0.0047,0.0022,0.0009,0.0004,-0.0018,-0.0028,-0.0025,-0.0049,-0.007,-0.0114,-0.0113,-0.012,-0.0111,-0.0175,-0.0175,-0.0175,-0.0111,-0.0105,-0.01,0,0,0,0,0,0,0.0078,0.0058,0.0045,0.005,0.0033,0.0004,0.0005,-0.0012,-0.0029,-0.0031,-0.0066,-0.0073,-0.0083,-0.0108,-0.0106,-0.0125,-0.0149,-0.015,-0.0098,-0.0093,-0.0088,-0.0055,-0.0136,0,0,0,0,0,0.0085,0.0088,0.0062,0.0067,0.0061,0.0033,0.0024,0.001,-0.0009,-0.0017,-0.0042,-0.0068,-0.0088,-0.0098,-0.0121,-0.0129,-0.0147,-0.013,-0.0125,-0.012,-0.0099,-0.0116,-0.011,-0.0173,-0.0173,-0.0173,0,0,0.0096,0.0086,0.0088,0.0073,0.0058,0.0061,0.0028,0.0023,0.0031,-0.0021,-0.0018,-0.0053,-0.0088,-0.0095,-0.0102,-0.0113,-0.0117,-0.012,-0.0116,-0.0097,-0.0115,-0.0108,-0.0103,-0.0173,-0.0173,-0.0173,0,0,0.0125,0.0113,0.0125,0.0117,0.01,0.0085,0.0087,0.0061,0.0056,0.005,0.0015,-0.0009,-0.0041,-0.0061,-0.0075,-0.006,-0.0092,-0.0074,-0.002,-0.0036,-0.003,-0.0026,-0.0054,-0.0053,-0.0069,-0.0069,-0.0069,0,0.014,0.0152,0.0126,0.0137,0.0141,0.0102,0.012,0.0109,0.0083,0.0088,0.0062,0.0021,-0.002,-0.0019,-0.0019,-0.0047,-0.0064,-0.0036,-0.0028,-0.0023,-0.0019,-0.005,-0.0049,-0.0066,-0.0066,-0.0067,-0.0067,0,0.0175,0.0186,0.0195,0.0198,0.0198,0.0208,0.0191,0.0191,0.0175,0.016,0.0155,0.0101,0.0082,0.0054,0.0021,0.0029,0.0004,-0.002,-0.0036,-0.0008,-0.0044,-0.0043,-0.0061,-0.0062,-0.0063,-0.0064,0,0,0.0218,0.022,0.0226,0.0246,0.0236,0.0247,0.0262,0.027,0.03,0.0254,0.029,0.0225,0.0195,0.0176,0.0127,0.0104,0.0094,0.006,0.0057,0.0042,0.0055,0.0021,0.0016,0.0075,0.0076,0.0077,0.0015,0,0.0258,0.0297,0.0286,0.0335,0.0356,0.0339,0.0368,0.0369,0.0362,0.0384,0.0326,0.0333,0.0243,0.0245,0.0204,0.0134,0.01,0.0113,0.0021,0.0019,-0.0005,0.0018,0.0045,-0.0008,0.0015,0.0015,0.0015,0,0.0304,0.0327,0.0378,0.0422,0.0433,0.046,0.0512,0.0532,0.0539,0.0538,0.0519,0.0477,0.0439,0.0364,0.0254,0.0269,0.0171,0.0101,0.0096,0.0048,-0.0014,-0.0031,-0.001,0.0014,0.0014,0.0014,0.0014,0,0.0361,0.0399,0.0449,0.0461,0.0496,0.0533,0.056,0.0582,0.0634,0.0647,0.0687,0.0613,0.0609,0.0482,0.0319,0.0296,0.0197,0.0145,0.0016,0.0012,0.001,0.0004,0.0068,0.0068,0.0068,0.0068,0.0068,0,0.0416,0.046,0.0486,0.0518,0.0608,0.0606,0.0707,0.0723,0.0778,0.087,0.078,0.0832,0.0642,0.0556,0.038,0.0207,0.0239,0.004,0.0003,0.003,0.0028,0.0029,0.0025,0.0066,0.0066,0.0067,0.0067,0,0.047,0.0482,0.0549,0.0604,0.0638,0.0704,0.0816,0.0893,0.0926,0.1048,0.1066,0.1011,0.0897,0.0685,0.0484,0.0306,0.013,0.0052,0.0089,0.0058,-0.0066,-0.0065,-0.0089,-0.009,-0.0091,-0.0093,-0.0093,0,0.0497,0.0534,0.062,0.0688,0.0722,0.0823,0.0912,0.0969,0.1068,0.1168,0.1245,0.1168,0.1127,0.0801,0.0488,0.0182,0.0131,-0.0005,-0.0053,-0.0043,-0.0077,-0.0075,-0.0073,-0.0039,-0.004,-0.004,-0.004,0,0.0555,0.0584,0.0644,0.078,0.0884,0.101,0.1142,0.1242,0.1338,0.1422,0.152,0.149,0.1194,0.0886,0.0458,0.0248,0.0044,-0.0022,0.0002,-0.0005,-0.0002,-0.0034,-0.0032,-0.0043,-0.0043,-0.0043,-0.0042,-0.0042,0.0606,0.0662,0.0753,0.0885,0.1018,0.1197,0.1316,0.1453,0.1608,0.174,0.1703,0.165,0.131,0.0756,0.0396,0.0019,0.0033,-0.0114,-0.0111,-0.0108,-0.0092,-0.0091,-0.0147,-0.0147,-0.0148,-0.0148,-0.0148,0,0.0668,0.0739,0.0862,0.1028,0.119,0.1251,0.1475,0.1579,0.1759,0.1843,0.1881,0.1547,0.1196,0.0803,0.0249,-0.0088,-0.0111,-0.0202,-0.0155,-0.0149,-0.0145,-0.013,-0.0196,-0.0197,-0.0198,-0.0199,0,0,0.0709,0.0824,0.0885,0.1148,0.1282,0.1498,0.1634,0.1776,0.1869,0.1911,0.1874,0.1779,0.1314,0.0898,0.0445,0.0127,0.0064,0.0059,0.0135,0.0251,0.0259,-0.0056,-0.0022,0,0,0,0,0]}],[{"header":{"parameterUnit":"m.s-1","parameterCategory":2,"la1":30.2991,"la2":30.254,"lo1":-89.0895,"lo2":-89.0444,"dy":0.0017,"dx":0.0017,"nx":28,"ny":28,"refTime":"2024-04-14T09:00:00:Z","depth":"4","parameterNumber":2,"parameterNumberName":"U-component_of_CURRENTS"},"data":[0,0,0,0,0,0,0,0,0,0,0,0,0,0,0,0,0,0,0,0,0,0,0,0,0,0,0,0,0,0,0,0,0,0,0,0,0,0,0,0,0,0,0,0,0,0,0,0,0,0,0,0,0,0,0,0,0,0,0.1892,0.1893,0,0.1963,0.1963,0.1964,0.2026,0.2027,0.2028,0.2029,0.2103,0.2104,0.2105,0,0,0,0,0,0,0,0,0,0,0,0,0,0.1813,0.1814,0.1892,0.1893,0.1894,0.1963,0.1963,0.1964,0.2026,0.2027,0.2029,0.203,0.2102,0.2104,0.2105,0,0,0,0,0,0,0,0,0,0,0,0,0,0.1859,0.1814,0.1891,0.1935,0.194,0.1963,0.1963,0.1964,0.2026,0.2027,0.2029,0.203,0.2102,0.2103,0.2105,0.2085,0,0,0.211,0.211,0,0,0,0,0,0,0,0,0.1856,0.1862,0.1928,0.1932,0.1938,0.199,0.1963,0.2006,0.2026,0.199,0.2029,0.2031,0.2066,0.207,0.2077,0.2089,0.2092,0.211,0.2111,0.2112,0.2112,0,0,0,0,0,0,0,0.1853,0.1859,0.1917,0.1929,0.1935,0.1953,0.1961,0.1971,0.2017,0.1994,0.1999,0.2011,0.2069,0.2075,0.2079,0.2093,0.211,0.2111,0.2112,0.2113,0.2218,0.222,0,0,0,0,0,0,0.1848,0.1856,0.1915,0.1919,0.1903,0.1953,0.1962,0.1969,0.2017,0.2026,0.201,0.2014,0.2071,0.2077,0.2082,0.2169,0.2112,0.2113,0.2114,0.2217,0.2219,0.2221,0,0,0,0,0,0,0.1846,0.1853,0.1912,0.1892,0.1901,0.1953,0.1961,0.197,0.2022,0.203,0.2039,0.2058,0.2073,0.2079,0.2134,0.2169,0.2114,0.2115,0.2214,0.2217,0.222,0.2275,0,0,0,0,0,0,0.1843,0.1851,0.1876,0.1891,0.1902,0.1955,0.196,0.197,0.2026,0.2033,0.2073,0.2079,0.2074,0.2132,0.2135,0.217,0.2116,0.2212,0.2216,0.2219,0.2271,0.2279,0.2287,0,0,0,0,0,0.184,0.1862,0.1876,0.1885,0.1927,0.1957,0.1965,0.2004,0.2027,0.2056,0.2088,0.208,0.2157,0.2134,0.2138,0.2174,0.221,0.2215,0.2219,0.2267,0.2278,0.2286,0,0,0,0,0,0,0.1846,0.1871,0.1887,0.1918,0.195,0.1969,0.2005,0.2028,0.2075,0.2095,0.2101,0.2109,0.2169,0.2167,0.2142,0.2216,0.2183,0.2188,0.2219,0.2228,0.2236,0.2237,0.2118,0,0,0,0,0,0.1855,0.188,0.1904,0.1936,0.1954,0.1987,0.2014,0.204,0.2073,0.2098,0.2125,0.2155,0.218,0.2203,0.2221,0.2261,0.2273,0.2289,0.2297,0.2303,0.2308,0.2368,0.2382,0.2235,0.2235,0.2235,0,0,0.1867,0.1886,0.1903,0.1941,0.1969,0.1992,0.2008,0.2059,0.2087,0.2096,0.2158,0.2185,0.2198,0.2243,0.227,0.2253,0.2353,0.2309,0.2314,0.2315,0.2374,0.2388,0.2401,0.2238,0.2237,0.2237,0,0,0.1888,0.1921,0.1944,0.1969,0.202,0.2033,0.2057,0.21,0.2134,0.2189,0.2203,0.2258,0.2297,0.2313,0.2323,0.2387,0.2392,0.2401,0.2443,0.2502,0.2514,0.2525,0.2559,0.2573,0.2406,0.2406,0.2406,0,0.1907,0.1925,0.1959,0.1984,0.2005,0.2053,0.2076,0.2111,0.2171,0.2205,0.2222,0.2311,0.2325,0.2375,0.2402,0.2404,0.2435,0.2402,0.2512,0.2523,0.2533,0.2565,0.258,0.2409,0.2409,0.2408,0.2408,0,0.1925,0.1955,0.1973,0.2011,0.2043,0.2074,0.2114,0.217,0.222,0.2256,0.2343,0.2374,0.2433,0.2445,0.2444,0.2525,0.2523,0.2513,0.2485,0.2552,0.2581,0.2595,0.2414,0.2412,0.2412,0.2411,0,0,0.1915,0.1972,0.1981,0.1996,0.2056,0.2076,0.2139,0.2197,0.2254,0.2328,0.2401,0.2457,0.2507,0.2522,0.2539,0.2587,0.2685,0.2592,0.2593,0.262,0.2816,0.2644,0.2642,0.2707,0.271,0.2712,0.2806,0,0.1916,0.1951,0.1984,0.202,0.2033,0.2097,0.2145,0.2216,0.2291,0.2378,0.2444,0.2523,0.2524,0.2578,0.2629,0.2675,0.2726,0.266,0.2752,0.2754,0.2589,0.2654,0.2721,0.2817,0.282,0.2822,0.2824,0,0.1908,0.1928,0.1962,0.2012,0.2027,0.207,0.2163,0.2217,0.2349,0.2413,0.252,0.2587,0.2687,0.2677,0.2798,0.2765,0.2803,0.2825,0.283,0.2657,0.2607,0.2737,0.2849,0.2847,0.2845,0.2843,0.2842,0,0.1853,0.1907,0.193,0.1947,0.202,0.2068,0.2125,0.2245,0.231,0.2464,0.2551,0.2661,0.2757,0.2819,0.2895,0.2869,0.3013,0.2976,0.2851,0.2839,0.2941,0.2928,0.3062,0.3062,0.3062,0.3062,0.3062,0,0.181,0.1833,0.1916,0.1925,0.1969,0.2046,0.213,0.2209,0.2351,0.2437,0.2583,0.2669,0.2809,0.2912,0.2936,0.2939,0.3057,0.2866,0.2856,0.2961,0.295,0.2951,0.2936,0.3065,0.3064,0.3064,0.3063,0,0.174,0.1798,0.1821,0.1905,0.1944,0.1982,0.2122,0.2172,0.234,0.2466,0.2531,0.2724,0.2847,0.2953,0.3064,0.2987,0.3002,0.2976,0.3092,0.3086,0.2774,0.2762,0.2823,0.2818,0.2814,0.281,0.2807,0,0.1702,0.1712,0.1793,0.1802,0.1846,0.193,0.1977,0.2143,0.2215,0.2471,0.2515,0.2721,0.2827,0.2847,0.2955,0.2987,0.2958,0.2937,0.2832,0.2768,0.2753,0.2748,0.2742,0.28,0.2799,0.2798,0.2796,0,0.1613,0.1661,0.1668,0.1696,0.1741,0.1788,0.1895,0.194,0.2142,0.2328,0.2448,0.2533,0.267,0.2742,0.2805,0.2816,0.2924,0.289,0.2898,0.2799,0.274,0.2729,0.2728,0.2781,0.2783,0.2785,0.2786,0,0.1545,0.1521,0.1543,0.1549,0.1606,0.1623,0.1697,0.1794,0.1903,0.2205,0.2238,0.2452,0.2642,0.2656,0.2705,0.2712,0.2659,0.2551,0.2575,0.2593,0.2473,0.2362,0.2286,0,0,0,0,0,0.1456,0.1404,0.1389,0.139,0.1446,0.1498,0.1622,0.1711,0.1943,0.1967,0.2105,0.2221,0.2321,0.2429,0.239,0.2585,0.2653,0.2525,0.2535,0.2697,0.2714,0.2594,0,0,0,0,0,0,0.1388,0.1365,0.1332,0.1269,0.1263,0.1322,0.14,0.1545,0.1587,0.1831,0.1901,0.209,0.222,0.2336,0.2356,0.2386,0.2342,0.2665,0.2659,0.2687,0.2703,0.2717,0.2599,0,0,0,0,0]},{"header":{"parameterUnit":"m.s-1","parameterCategory":2,"la1":30.2991,"la2":30.254,"lo1":-89.0895,"lo2":-89.0444,"dy":0.0017,"dx":0.0017,"nx":28,"ny":28,"refTime":"2024-04-14T09:00:00:Z","depth":"4","parameterNumber":3,"parameterNumberName":"V-component_of_CURRENTS"},"data":[0,0,0,0,0,0,0,0,0,0,0,0,0,0,0,0,0,0,0,0,0,0,0,0,0,0,0,0,0,0,0,0,0,0,0,0,0,0,0,0,0,0,0,0,0,0,0,0,0,0,0,0,0,0,0,0,0,0,0.0026,0.0026,0,-0.0011,-0.0011,-0.0011,-0.0031,-0.0031,-0.0031,-0.0031,-0.008,-0.0081,-0.0082,0,0,0,0,0,0,0,0,0,0,0,0,0,0.0051,0.005,0.0027,0.0026,0.0026,-0.0011,-0.0011,-0.0012,-0.0031,-0.0031,-0.0031,-0.0031,-0.0079,-0.0081,-0.0082,0,0,0,0,0,0,0,0,0,0,0,0,0,0.003,0.005,0.0027,0.0011,0.0009,-0.0011,-0.0011,-0.0012,-0.0031,-0.0031,-0.0031,-0.0031,-0.0079,-0.0081,-0.0083,-0.0092,0,0,-0.0088,-0.0089,0,0,0,0,0,0,0,0,0.0031,0.0029,0.0014,0.0012,0.001,-0.0017,-0.002,-0.0039,-0.0031,-0.0015,-0.0031,-0.0032,-0.006,-0.0063,-0.0069,-0.0094,-0.0096,-0.0088,-0.0089,-0.009,-0.0091,0,0,0,0,0,0,0,0.0033,0.003,0.0012,0.0013,0.0011,-0.0004,-0.0007,-0.0024,-0.0037,-0.0017,-0.0018,-0.0023,-0.0061,-0.0068,-0.0071,-0.0097,-0.0088,-0.009,-0.0091,-0.0092,-0.0128,-0.0128,0,0,0,0,0,0,0.0038,0.0032,0.0013,0.0011,0.002,-0.0004,-0.0008,-0.0008,-0.0036,-0.0041,-0.0023,-0.0024,-0.0064,-0.0069,-0.0073,-0.0069,-0.009,-0.0092,-0.0093,-0.0128,-0.0128,-0.0128,0,0,0,0,0,0,0.0039,0.0037,0.0015,0.002,0.0016,-0.0005,-0.0005,-0.0008,-0.0013,-0.0041,-0.0045,-0.0024,-0.0065,-0.007,-0.0082,-0.0071,-0.0093,-0.0094,-0.0128,-0.0128,-0.0128,-0.0071,0,0,0,0,0,0,0.004,0.0038,0.004,0.0021,0.0016,0.001,-0.0005,-0.0009,-0.0016,-0.0018,-0.0043,-0.0048,-0.0065,-0.0079,-0.0083,-0.0074,-0.0096,-0.0128,-0.0128,-0.0128,-0.0073,-0.0069,-0.0066,0,0,0,0,0,0.0041,0.0048,0.0041,0.0038,0.002,0.001,0.0007,-0.0008,-0.0016,-0.0014,-0.0031,-0.0047,-0.008,-0.008,-0.0086,-0.0077,-0.0128,-0.0128,-0.0128,-0.0075,-0.007,-0.0066,0,0,0,0,0,0,0.006,0.0046,0.0038,0.004,0.0028,0.0007,0.0007,-0.0005,-0.0017,-0.0018,-0.0044,-0.005,-0.0057,-0.0077,-0.0076,-0.0088,-0.0108,-0.0108,-0.0066,-0.0061,-0.0057,-0.0035,-0.0097,0,0,0,0,0,0.0065,0.0068,0.0049,0.0052,0.0048,0.0028,0.0021,0.0011,-0.0004,-0.0009,-0.0028,-0.0047,-0.0061,-0.0068,-0.0086,-0.0091,-0.0118,-0.0091,-0.0087,-0.0083,-0.0069,-0.0104,-0.0102,-0.0126,-0.0126,-0.0126,0,0,0.0073,0.0066,0.0067,0.0057,0.0046,0.005,0.0024,0.002,0.0029,-0.0013,-0.0007,-0.0035,-0.0061,-0.0065,-0.007,-0.0078,-0.0092,-0.0083,-0.0079,-0.0067,-0.0103,-0.0101,-0.0099,-0.0126,-0.0126,-0.0126,0,0,0.0093,0.0085,0.0094,0.0089,0.0077,0.0067,0.0068,0.0049,0.0047,0.0044,0.0018,-0.0001,-0.0024,-0.0037,-0.0047,-0.0034,-0.0072,-0.0045,-0.0004,-0.0037,-0.0035,-0.0034,-0.0072,-0.0074,-0.0041,-0.0041,-0.0041,0,0.0104,0.0114,0.0095,0.0104,0.011,0.0079,0.0096,0.0089,0.007,0.0074,0.0054,0.002,-0.0007,-0.0006,-0.0002,-0.0023,-0.0052,-0.0017,-0.0031,-0.003,-0.003,-0.0069,-0.0072,-0.0038,-0.0038,-0.0039,-0.0039,0,0.0129,0.014,0.0146,0.0152,0.0155,0.0163,0.0154,0.0155,0.0144,0.0132,0.0126,0.0086,0.0068,0.0051,0.003,0.0024,-0.0003,-0.0024,-0.0039,-0.0024,-0.0067,-0.0071,-0.0034,-0.0035,-0.0036,-0.0036,0,0,0.0154,0.0163,0.0168,0.0189,0.0185,0.0196,0.0211,0.022,0.024,0.0206,0.0223,0.0185,0.0155,0.0142,0.0104,0.0074,0.0044,0.0032,0.0029,0.0001,-0.0037,-0.0042,-0.0048,0.0017,0.0017,0.0016,-0.0071,0,0.0184,0.0218,0.0214,0.026,0.0279,0.0271,0.0296,0.0299,0.029,0.0295,0.0249,0.0246,0.0193,0.0185,0.0146,0.007,0.0036,0.0069,-0.0054,-0.0057,-0.0058,-0.0051,0.0016,-0.0075,-0.0076,-0.0076,-0.0077,0,0.0215,0.0237,0.0282,0.0329,0.034,0.0364,0.0406,0.0424,0.0415,0.0409,0.0383,0.0339,0.0295,0.0246,0.013,0.0151,0.0069,0.0003,-0.0002,-0.0025,-0.0069,-0.0094,-0.0086,-0.0085,-0.0084,-0.0084,-0.0083,0,0.0252,0.0293,0.0338,0.0351,0.0388,0.0421,0.0448,0.0459,0.0495,0.048,0.0491,0.0418,0.0393,0.028,0.0141,0.0134,0.0003,-0.0026,-0.0108,-0.0111,-0.0105,-0.0106,-0.0103,-0.0103,-0.0102,-0.0102,-0.0102,0,0.0288,0.0328,0.0364,0.0391,0.0469,0.0476,0.0554,0.0565,0.0588,0.0633,0.0558,0.0561,0.0401,0.0303,0.0165,0.0017,0.0019,-0.0094,-0.0128,-0.0082,-0.0079,-0.0109,-0.0109,-0.0106,-0.0105,-0.0104,-0.0104,0,0.0317,0.0335,0.0397,0.0454,0.0488,0.0544,0.0637,0.0686,0.0697,0.0749,0.075,0.0669,0.054,0.037,0.0179,0.0065,-0.0088,-0.0141,-0.0076,-0.0106,-0.0188,-0.0184,-0.0239,-0.024,-0.024,-0.0241,-0.0241,0,0.0331,0.0362,0.045,0.0504,0.0538,0.0627,0.0695,0.0741,0.0795,0.0814,0.084,0.0737,0.0658,0.0394,0.0199,-0.0062,-0.01,-0.0184,-0.0186,-0.0172,-0.02,-0.0194,-0.0189,-0.0242,-0.0243,-0.0243,-0.0243,0,0.0362,0.0391,0.0444,0.0553,0.0639,0.0744,0.084,0.0884,0.0933,0.0944,0.0922,0.0782,0.0636,0.0408,0.0208,0.0018,-0.0134,-0.0192,-0.0192,-0.0195,-0.0177,-0.0203,-0.0197,-0.0245,-0.0245,-0.0245,-0.0245,0,0.039,0.0431,0.0502,0.0603,0.0717,0.0829,0.0875,0.0941,0.0994,0.1004,0.0988,0.0824,0.0728,0.0449,0.0261,0.0076,0.0024,-0.0044,-0.0052,-0.0052,0.0022,0.0074,0.0062,0,0,0,0,0,0.0411,0.046,0.0551,0.0665,0.0778,0.0852,0.0964,0.0996,0.1034,0.1033,0.1018,0.088,0.0608,0.0487,0.0303,0.0229,-0.0022,0.0005,-0.0107,-0.0258,-0.0255,-0.0201,0,0,0,0,0,0,0.0428,0.0502,0.0547,0.07,0.0788,0.0924,0.0998,0.1024,0.1026,0.1025,0.0887,0.0827,0.0562,0.0717,0.0298,0.0241,0.0142,-0.0119,-0.0123,-0.026,-0.0257,-0.0255,-0.0198,0,0,0,0,0]}]]